Location: Brochat
(45.2316°N, 1.4847°E)
Time: 14:08:22
(UTC+00:00)

Daily predictions for brighter satellites

Satellite Brightness Start Highest point End
(mag) Time Altitude Azimuth Time Altitude Azimuth Time Altitude Azimuth
Cosmos 1743 Rocket 3.5 16:41:56 10° N 16:46:17 74° E 16:50:36 10° SSE
Cosmos 1763 Rocket 3.5 16:41:49 10° SSW 16:46:53 85° WNW 16:52:02 10° NNE
ARGOS 4.4 16:44:14 10° E 16:47:48 18° ENE 16:51:23 10° NNE
Meteor 1-25 Rocket 4.2 16:42:22 10° N 16:47:55 67° ENE 16:53:31 10° SSE
Cosmos 1634 Rocket 4.4 16:42:15 10° SSE 16:48:10 44° E 16:54:07 10° NNE
Cosmos 2278 4.3 16:44:13 10° NNW 16:49:26 35° NE 16:54:35 10° ESE
Cosmos 2026 Rocket 4.1 16:44:48 10° N 16:50:46 50° ENE 16:56:37 10° SSE
Cosmos 1602 3.9 16:47:27 10° N 16:51:14 50° ENE 16:55:01 10° SSE
Cosmos 1833 Rocket 2.8 16:48:09 10° SSW 16:53:46 88° WNW 16:59:27 10° NNE
Cosmos 44 Rocket 4.4 16:49:43 10° NNW 16:53:47 25° NE 16:57:45 10° E
SJ 16-02 4.4 16:51:50 10° WNW 16:54:36 17° W 16:57:21 10° SW
Cosmos 2195 Rocket 4.5 16:48:45 10° N 16:54:53 64° E 17:01:02 10° SSE
Cosmos 841 Rocket 3.7 16:50:17 10° S 16:55:16 51° ESE 17:00:15 10° NNE
CZ-2C R/B 2.9 16:50:55 10° SSE 16:55:48 87° WSW 17:00:35 10° NNW
SeaSat 1 4.3 16:52:20 10° N 16:56:17 24° NW 17:00:11 10° W
USA 229 DEB 4.2 16:49:35 10° NW 16:56:58 78° SW 17:04:47 10° SSE
USA 229 4.2 16:49:41 10° NW 16:57:04 78° SW 17:04:52 10° SSE
Cosmos 1666 Rocket 4.5 16:53:39 10° NNE 16:57:28 27° ENE 17:01:14 10° SE
Okean O Rocket 3.1 16:54:56 10° E 16:57:45 17° ENE 17:00:34 10° NNE
USA 306 4.2 16:56:48 10° NW 17:00:22 25° N 17:03:36 12° ENE
H-2A R/B 2.6 16:56:33 10° SE 17:01:06 33° ENE 17:05:34 10° N
Cosmos 1939 Rocket 2.9 16:58:10 10° SSE 17:02:14 65° ENE 17:06:17 10° N
Cosmos 1937 Rocket 3.5 16:57:07 10° NNW 17:02:29 82° ENE 17:07:47 10° SSE
Cosmos 1809 Rocket 4.4 16:56:49 10° N 17:02:54 69° E 17:08:56 10° SSE
COSMOS 2406 3.3 16:57:11 10° SSW 17:02:56 85° ESE 17:08:42 10° NNE
ISS -3.8 17:00:48 10° WNW 17:04:12 71° NNE 17:07:35 10° ESE
Cosmos 372 Rocket 4.0 17:02:05 10° NNW 17:07:17 59° ENE 17:12:27 10° SE
CZ-2C R/B 3.6 17:04:31 10° NE 17:08:44 25° E 17:12:55 10° SSE
Cosmos 1500 3.2 17:07:27 10° N 17:11:09 55° E 17:14:48 10° SSE
USA 234 3.3 17:06:56 10° ESE 17:13:24 67° NNE 17:19:53 10° NW
Cosmos 1500 Rocket 4.5 17:09:38 10° NNW 17:13:58 52° W 17:18:13 10° S
Cosmos 1782 2.7 17:11:48 10° S 17:15:46 71° E 17:19:44 10° NNE
CZ-2D R/B 3.5 17:14:02 10° SE 17:17:40 43° ENE 17:21:18 10° N
Sich 1 2.9 17:14:28 10° N 17:18:47 81° E 17:23:07 10° S
SL-08 R/B 4.5 17:15:37 10° N 17:20:03 43° WNW 17:24:24 10° SW
CZ-4B R/B 3.6 17:15:10 10° SE 17:20:06 38° ENE 17:25:00 10° N
USA 307 4.2 17:16:29 10° NW 17:20:07 26° N 17:22:25 17° NE
NOAA 6 4.1 17:17:57 10° SSE 17:23:06 87° WSW 17:28:16 10° NNW
NOSS 2-2 (D) 4.4 17:18:45 10° NW 17:24:04 89° ENE 17:31:32 10° SE
ATLAS 5 CENTAUR R/B 3.1 17:17:40 10° NW 17:24:39 29° NNE 17:26:27 19° ENE
Cosmos 1805 Rocket 3.9 17:21:48 10° NNW 17:26:07 66° W 17:30:24 10° S
PAYLOAD B 4.2 17:20:43 10° SSE 17:26:13 62° ENE 17:31:45 10° N
SL-24 R/B - RUBIN 2 3.6 17:24:22 10° NW 17:28:53 80° SW 17:33:10 10° SSE
deb Chang Zheng 4 4.1 17:26:15 10° SE 17:30:12 36° ENE 17:34:09 10° N
Cosmos 540 Rocket 4.1 17:29:59 10° SW 17:35:00 57° WNW 17:40:03 10° NNE
Cosmos 2360 Rocket 3.6 17:33:15 10° N 17:37:05 18° NE 17:37:22 18° NE
Lacrosse 5 rocket 1.7 17:33:44 10° NW 17:37:28 41° NNE 17:39:14 26° E
Cosmos 1666 2.5 17:36:32 10° N 17:40:15 67° E 17:43:56 10° SSE
USA 308 4.0 17:39:09 10° NW 17:42:54 29° NNE 17:44:08 25° NE
Cosmos 1515 Rocket 4.4 17:40:07 10° SSE 17:43:58 30° E 17:44:48 28° ENE
Meteor 2-16 Rocket 4.4 17:43:43 10° N 17:49:52 83° E 17:56:00 10° S
COSMOS 2455 3.3 17:45:20 10° SW 17:51:16 61° NW 17:56:40 13° NNE
Meteor 1-10 Rocket 4.5 17:45:57 10° SSE 17:51:26 47° E 17:56:15 13° NNE
Meteor 1-11 Rocket 4.1 17:47:38 10° N 17:52:56 40° ENE 17:58:18 10° SE
PSLV R/B 4.2 17:49:28 10° S 17:53:06 60° W 17:56:49 10° NNW
Cosmos 1814 Rocket 4.1 17:51:07 10° SSW 17:56:20 79° WNW 18:00:57 13° NNE
Cosmos 921 Rocket 3.1 17:52:39 10° S 17:56:42 50° ESE 17:57:55 37° NE
Cosmos 1570 Rocket 4.0 17:52:11 10° SSW 17:57:26 88° WNW 18:01:47 15° NNE
Cosmos 2322 Rocket 2.7 17:53:39 10° NNW 17:58:54 36° NE 18:00:16 32° E
SL-08 RB Rocket 4.0 17:55:03 10° SE 17:59:27 45° ENE 18:03:50 10° N
Cosmos 2298 Rocket 4.0 17:57:08 10° NNW 18:02:25 58° ENE 18:07:39 10° SE
COSMO-SKYMED 1 2.4 17:59:54 20° NNE 18:02:55 73° ESE 18:07:15 10° S
Cosmos 1980 Rocket 3.1 17:58:02 10° NW 18:03:31 51° WSW 18:08:55 10° S
CZ-4C R/B 3.1 17:56:59 10° NW 18:04:20 80° SW 18:12:51 10° SSE
Cosmos 1812 3.6 18:02:12 10° SSW 18:05:57 49° WNW 18:09:43 10° N
Cosmos 1633 Rocket 3.3 18:03:23 10° NNW 18:07:45 68° W 18:12:06 10° S
Meteor 2-15 Rocket 4.5 18:02:31 10° SSE 18:08:28 55° E 18:14:07 11° NNE
USA 305 3.6 18:04:37 10° NW 18:08:34 36° NNE 18:08:38 36° NNE
Helios 1B 4.4 18:07:44 23° NNE 18:10:24 84° ESE 18:14:44 10° SSW
Feng Yun 1-1 Rocket 4.4 18:04:56 10° SE 18:10:41 56° ENE 18:16:24 10° N
CZ-4 R/B 4.3 18:08:28 10° SSE 18:12:35 81° ENE 18:16:44 10° N
Cosmos 1151 Rocket 3.8 18:08:45 10° SSW 18:12:58 52° WNW 18:17:15 10° N
Cosmos 2279 Rocket 4.3 18:07:23 10° SSW 18:13:34 69° W 18:19:46 10° N
CZ-2C R/B 3.3 18:10:49 10° SSW 18:13:38 17° S 18:14:25 16° SSE
Cosmos 1818 3.5 18:10:15 10° NW 18:15:46 89° WSW 18:20:30 14° SSE
Aureole 3 Rocket 4.0 18:13:43 10° SSE 18:16:26 35° SE 18:16:26 35° SE
SL-16 R/B 2.1 18:12:34 10° NNW 18:18:13 63° ENE 18:21:04 29° SE
Cosmos 2266 Rocket 3.9 18:12:12 10° N 18:18:37 74° E 18:25:01 10° SSE
Cosmos 2082 Rocket 3.3 18:14:51 10° SW 18:20:13 42° WNW 18:24:53 14° NNE
USA 267 3.8 18:19:25 26° NE 18:22:54 50° NNW 18:29:10 10° W
Landsat 5 3.2 18:25:10 76° NNE 18:25:28 89° E 18:29:25 10° SSW
ARGOS 3.3 18:22:04 10° S 18:27:28 74° WSW 18:32:54 10° NNW
GEOS 3 Rocket 3.9 18:30:35 47° NNE 18:30:35 47° NNE 18:35:16 10° NNW
Meteor 2-15 4.5 18:24:30 10° SSW 18:30:37 80° W 18:36:45 10° N
X-37B 3.1 18:28:57 10° SW 18:29:43 15° SSW 18:29:43 15° SSW
Cosmos 2333 Rocket 3.9 18:28:55 10° N 18:31:06 19° NNE 18:31:06 19° NNE
Okean O Rocket 2.2 18:29:15 10° S 18:33:38 59° W 18:38:04 10° NNW
Cosmos 44 Rocket 3.7 18:30:52 10° NW 18:35:42 61° WSW 18:38:15 26° SSE
Cosmos 2150 Rocket 4.1 18:33:41 10° NNW 18:38:52 76° WSW 18:44:06 10° SSE
Cosmos 1470 Rocket 4.2 18:34:31 10° NNW 18:38:53 55° W 18:43:15 10° S
Cosmos 1867 3.8 18:34:02 10° SSW 18:38:42 51° SE 18:38:42 51° SE
H-2A R/B 3.7 18:35:53 10° SSW 18:40:30 33° W 18:45:02 10° NNW
ISS -1.3 18:38:13 10° W 18:40:43 19° SW 18:41:23 18° SSW
USA 306 4.0 18:36:49 10° NW 18:39:36 35° NNW 18:39:36 35° NNW
USA 32 3.9 18:43:24 10° S 18:48:37 85° W 18:49:26 64° N
CZ-2C R/B 3.5 18:44:29 11° N 18:49:14 45° WNW 18:54:07 10° SW
Cosmos 2219 Rocket 4.2 18:45:14 10° N 18:46:30 15° N 18:46:30 15° N
Cosmos 1125 Rocket 3.8 18:45:43 10° NNW 18:50:55 65° WSW 18:54:41 19° S
ATLAS CENTAUR R/B 3.9 18:48:44 10° W 18:53:58 23° NNW 18:54:28 23° NNW
Meteor 1-27 Rocket 3.6 18:50:46 10° SSW 18:56:17 83° W 18:56:41 76° NNW
USA 234 4.3 18:50:29 10° SSE 18:56:37 42° SW 19:02:47 10° WNW
Cosmos 1241 Rocket 4.5 18:50:31 10° SSW 18:56:21 65° SSE 18:56:21 65° SSE
ATLAS 2AS CENTAUR R/B 4.2 18:52:56 10° NNW 18:58:02 23° NNE 18:58:02 23° NNE
NOSS 3-3 (A) 4.4 18:59:54 10° SSW 19:03:44 44° S 19:03:44 44° S
NOSS 3-3 (C) 4.4 19:00:00 10° SSW 19:03:48 44° S 19:03:48 44° S
Lacrosse 5 rocket 3.5 19:12:51 10° WNW 19:14:52 24° W 19:14:52 24° W
Cosmos 2360 Rocket 3.5 19:16:13 10° NNW 19:19:09 32° NNW 19:19:09 32° NNW
Cosmos 2322 Rocket 3.5 19:37:42 10° NW 19:42:10 38° W 19:42:10 38° W
SL-16 R/B 4.4 19:57:40 10° NW 20:01:47 21° W 20:03:05 19° WSW
